Flag for United Kingdom Weather past 2 weeks in Swindon, England, United Kingdom

Now
41 °F

Passing clouds.


Feels Like: 32 °F
Forecast: N/A
Wind: 20 mph from West

Location: Brize Norton

Current Time: Jan 28, 2015 at 4:35:29 PM

Latest Report: Jan 28, 2015 at 3:50 PM


Visibility: N/A

Pressure: 29.59 "Hg

Humidity: 53%

Dew point: 25 °F

Location of SwindonLocation

Historic Weather in Swindon — Graph

°F

Swindon temperature yesterday

Maximum temperature yesterday: 46 °F (at 12:50 PM)
Minimum temperature yesterday: 36 °F (at 2:50 AM)
Average temperature yesterday: 42 °F

Past Weeks' High & Low Weather Summary

 TemperatureHumidityPressure
High52 °F (Jan 15, 1:50 AM)100% (Jan 18, 2:50 AM)30.48 "Hg (Jan 18, 2:50 AM)
Low21 °F (Jan 23, 3:50 AM)53% (Jan 28, 2:50 PM)29.06 "Hg (Jan 15, 1:50 AM)
Average38 °F86%29.91 "Hg
* Reported Jan 13 2:50 PM — Jan 28 2:50 PM, Swindon, Weather by CustomWeather, © 2014

Note: Actual official high and low records may vary slightly from our data, if they occured in-between our weather recording intervals... More about our weather records

Advertising

Swindon weather history for previous 24 hours

 ConditionsComfort  
Time TempWeatherWind HumidityBarometerVisibility
2:50 PM
Jan 28
43 °FPassing clouds.18 mph53%29.59 "HgN/A
1:50 PM43 °FPassing clouds.23 mph57%29.56 "HgN/A
12:50 PM43 °FScattered clouds.21 mph66%29.56 "HgN/A
11:50 AM45 °FScattered clouds.17 mph71%29.53 "HgN/A
11:23 AM43 °FScattered clouds.17 mph81%29.53 "HgN/A
10:56 AM46 °FLots of rain. Partly sunny.16 mph82%29.56 "Hg1 mi
9:50 AM48 °FDrizzle. Broken clouds.16 mph94%29.53 "Hg3 mi
8:50 AM48 °FDrizzle. Low clouds.12 mph94%29.56 "Hg3 mi
7:50 AM48 °FDrizzle. Mostly cloudy.13 mph94%29.62 "HgN/A
6:50 AM48 °FLow clouds.12 mph87%29.68 "HgN/A
5:50 AM46 °FDrizzle. Mostly cloudy.12 mph93%29.74 "Hg5 mi
4:50 AM45 °FLow clouds.12 mph87%29.80 "HgN/A
3:50 AM45 °FPassing clouds.10 mph87%29.86 "HgN/A
2:50 AM43 °FPartly cloudy.9 mph93%29.92 "HgN/A
1:50 AM43 °FPassing clouds.10 mph93%29.98 "HgN/A
12:50 AM43 °FLow clouds.9 mph93%29.98 "HgN/A
11:50 PM
Jan 27
43 °FPassing clouds.8 mph93%30.07 "HgN/A
10:50 PM43 °FPartly cloudy.9 mph93%30.07 "HgN/A
9:50 PM43 °FPassing clouds.6 mph87%30.12 "HgN/A
8:50 PM43 °FPassing clouds.5 mph81%30.15 "HgN/A
7:50 PM45 °FPassing clouds.7 mph76%30.21 "HgN/A
6:50 PM43 °FPassing clouds.5 mph81%30.21 "HgN/A
5:50 PM43 °FPassing clouds.5 mph81%30.24 "HgN/A
4:50 PM45 °FPassing clouds.6 mph76%30.24 "HgN/A
Weather by CustomWeather, © 2014

See weather overviewHow to use our weather pages